Weather in Ust'-Yugan

Russia / Khanty-Mansi Autonomous Okrug — Yugra     60°56′02″N   73°06′29″E
temp.,
°C
wind,
m/s
gust,
m/s
humid.,
%
clouds,
%
prec.,
mm/h
press.,
hPa
HPBL,
m
4 march, thu
thu423:00−12s61292100 0.8 999463
02:00−12s5119295 0.1 998322
05:00−13s5109486 0.1 999270
08:00−12s5109592 0.1 998237
11:00−8s599393 0.1 998358
14:00−5sse5994100 0.3 997502
17:00−5s51094100 0.7 996536
20:00−6sse4896100 0.3 995258
5 march, fri
fri523:00−7sse3697100 0.3 994116
02:00−7s3396100 0.2 99380
05:00−7s2396100 0.4 99353
08:00−7ssw3596100 0.4 993165
11:00−5wsw4795100 0.6 994465
14:00−4wsw5889100 0.6 995755
17:00−6wsw369298 0.7 998132
20:00−10sw349497 0.0 99969
6 march, sat
sat623:00−13ssw239780 0.1 100021
02:00−13s239573 0.0 100023
05:00−13se239587 0.0 100035
08:00−12ese349694 0.1 998101
11:00−9se349397 0.4 998271
14:00−6sse2392100 0.6 997361
17:00−5se1297100 1.3 997150
20:00−8wsw4795100 0.9 997237
7 march, sun
sun723:00−12wsw479694 0.9 998131
02:00−11wsw489598 0.3 999259
05:00−12wsw479695 0.6 1001186
08:00−13wsw369690 0.2 1002172
11:00−11w359292 0.3 1004363
14:00−10wnw3492100 0.2 1004365
17:00−12nw2396100 0.4 100592
20:00−14nnw2396100 0.2 100534
8 march, mon
mon823:00−15nw2396100 0.3 100634
02:00−16nw239795 0.1 100642
05:00−17wnw239798 0.2 100849
08:00−18wnw239786 0.1 101061
11:00−15w249286 0.1 1011286
14:00−12w248898 0.0 1012485
17:00−15ene019498 0.1 101320
20:00−15sse339683 0.1 101354